This is the latest recevied weather packets stored in our database for station/object W2GRK-15. If no packets are shown the sender has not sent any weather packets the latest 10 day(s).
| Time | Temp. | Humidity | Pressure | Rain* | Wind** | Luminosity | Snow |
|---|---|---|---|---|---|---|---|
| 1777665558 | 18.33° C | 42% | 1011.1 hPa | 0 mm | - | 489 W/m² | - |
| 1777665381 | 18.33° C | 39% | 1011.4 hPa | 0 mm | - | 492 W/m² | - |
| 1777665204 | 18.33° C | 42% | 1011.4 hPa | 0 mm | - | 499 W/m² | - |
| 1777664962 | 18.33° C | 40% | 1011.5 hPa | 0 mm | - | 514 W/m² | - |
| 1777664302 | 17.78° C | 41% | 1011.5 hPa | 0 mm | - | 546 W/m² | - |
| 1777664189 | 17.78° C | 42% | 1011.5 hPa | 0 mm | - | 554 W/m² | - |
| 1777664124 | 18.33° C | 41% | 1011.3 hPa | 0 mm | - | 556 W/m² | - |
| 1777664060 | 18.33° C | 42% | 1011.6 hPa | 0 mm | - | 557 W/m² | - |
| 1777663351 | 17.78° C | 43% | 1011.5 hPa | 0 mm | - | 649 W/m² | - |
| 1777662510 | 18.33° C | 41% | 1011.7 hPa | 0 mm | - | 272 W/m² | - |
| 1777662446 | 18.33° C | 41% | 1011.8 hPa | 0 mm | - | 251 W/m² | - |
| 1777662205 | 18.33° C | 40% | 1011.8 hPa | 0 mm | - | 632 W/m² | - |
| 1777662076 | 18.33° C | 43% | 1011.9 hPa | 0 mm | - | 647 W/m² | - |
| 1777661657 | 17.78° C | 42% | 1011.8 hPa | 0 mm | - | 661 W/m² | - |
| 1777661564 | 17.78° C | 43% | 1011.8 hPa | 0 mm | - | 671 W/m² | - |
| 1777661190 | 17.22° C | 44% | 1011.9 hPa | 0 mm | - | 588 W/m² | - |
| 1777661061 | 17.22° C | 43% | 1012 hPa | 0 mm | - | 637 W/m² | - |
| 1777660578 | 17.22° C | 43% | 1012.1 hPa | 0 mm | - | 693 W/m² | - |
| 1777660485 | 17.78° C | 44% | 1011.8 hPa | 0 mm | - | 696 W/m² | - |
| 1777660111 | 17.78° C | 45% | 1012.1 hPa | 0 mm | - | 570 W/m² | - |
| 1777659917 | 17.78° C | 44% | 1012.1 hPa | 0 mm | - | 757 W/m² | - |
| 1777659805 | 17.78° C | 43% | 1012.3 hPa | 0 mm | - | 731 W/m² | - |
| 1777659676 | 17.78° C | 44% | 1012.5 hPa | 0 mm | - | 713 W/m² | - |
| 1777659386 | 17.22° C | 46% | 1012.3 hPa | 0 mm | - | 722 W/m² | - |
| 1777659144 | 17.22° C | 47% | 1012.4 hPa | 0 mm | - | 735 W/m² | - |
* Rain latest hour (hover to see other rain measurements)
** Current wind speed in m/s (hover to see current wind gust speed)